Location: Muenchen
(48.1800°N, 11.5800°E)
Time: 15:21:02
(UTC+02:00)

Cosmos 1455 - Visible Passes

Search period start: 20 April 2014 00:00
Search period end: 30 April 2014 00:00
Orbit: 521 x 547 km, 82.5° (Epoch: 19 April)

Date Brightness Start Highest point End Pass type
(mag) Time Alt. Az. Time Alt. Az. Time Alt. Az.
20 Apr 4.4 22:03:13 10° SW 22:06:37 28° WNW 22:10:05 10° NNW visible
21 Apr 4.4 21:53:51 10° SW 21:57:18 29° WNW 22:00:48 10° N visible
22 Apr 4.3 21:44:28 10° SW 21:47:58 30° WNW 21:51:30 10° N visible
23 Apr 4.3 21:35:05 10° SW 21:38:37 31° WNW 21:42:11 10° N visible
24 Apr 4.3 21:25:41 10° SW 21:29:15 32° WNW 21:32:52 10° N visible
25 Apr 4.2 21:16:17 10° SW 21:19:52 33° WNW 21:23:31 10° N visible
26 Apr 4.2 21:06:52 10° SW 21:10:29 35° WNW 21:14:10 10° N visible
27 Apr 4.2 20:57:26 10° SW 21:01:05 36° WNW 21:04:48 10° N visible
